Location: Bukovany
(49.8234°N, 14.6297°E)
Time: 06:32:43
(UTC+00:00)

BREEZE-M DEB (TANK) - Pass Details

Date: 17 November 2025
Orbit: 304 x 15917 km, 49.3° (Epoch: 09 December)

Event Time Altitude Azimuth Distance (km) Brightness Sun altitude
Rises 17:23:01 0° 253° (WSW) 2,153 6.8 -20.3°
Reaches altitude 10° 17:24:21 10° 251° (WSW) 1,492 5.7 -20.5°
Maximum altitude 17:27:09 76° 166° (SSE) 670 2.6 -21.0°
Enters shadow 17:28:32 45° 91° (E) 1,076 3.3 -21.2°
